This is the latest recevied weather packets stored in our database for station/object VK7TM-1. If no packets are shown the sender has not sent any weather packets the latest 10 day(s).
| Time | Temp. | Humidity | Pressure | Rain* | Wind** | Luminosity | Snow |
|---|---|---|---|---|---|---|---|
| 1778397351 | 13.89° C | 92% | 1032.9 hPa | 0 mm | - | 2 W/m² | - |
| 1778397061 | 13.89° C | 92% | 1032.8 hPa | 0 mm | - | 4 W/m² | - |
| 1778396771 | 13.89° C | 91% | 1032.8 hPa | 0 mm | - | 6 W/m² | - |
| 1778396481 | 13.89° C | 90% | 1032.8 hPa | 0 mm | - | 8 W/m² | - |
| 1778396191 | 13.89° C | 90% | 1033 hPa | 0 mm | - | 11 W/m² | - |
| 1778395901 | 13.89° C | 88% | 1032.9 hPa | 0 mm | - | 14 W/m² | - |
| 1778395611 | 14.44° C | 87% | 1032.9 hPa | 0 mm | - | 15 W/m² | - |
| 1778395321 | 14.44° C | 86% | 1032.8 hPa | 0 mm | - | 22 W/m² | - |
| 1778395031 | 14.44° C | 86% | 1032.7 hPa | 0 mm | - | 25 W/m² | - |
| 1778394741 | 14.44° C | 85% | 1032.9 hPa | 0 mm | - | 29 W/m² | - |
| 1778394451 | 14.44° C | 85% | 1032.8 hPa | 0 mm | - | 33 W/m² | - |
| 1778394161 | 14.44° C | 84% | 1032.8 hPa | 0 mm | - | 36 W/m² | - |
| 1778393871 | 14.44° C | 84% | 1032.8 hPa | 0 mm | - | 40 W/m² | - |
| 1778393581 | 14.44° C | 84% | 1032.8 hPa | 0 mm | - | 42 W/m² | - |
| 1778393291 | 14.44° C | 83% | 1032.5 hPa | 0 mm | - | 46 W/m² | - |
| 1778393001 | 14.44° C | 83% | 1032.9 hPa | 0 mm | - | 49 W/m² | - |
| 1778392711 | 15° C | 82% | 1032.5 hPa | 0 mm | - | 52 W/m² | - |
| 1778392422 | 14.44° C | 82% | 1032.7 hPa | 0 mm | - | 55 W/m² | - |
| 1778392132 | 15° C | 82% | 1032.6 hPa | 0 mm | - | 59 W/m² | - |
| 1778391842 | 15° C | 81% | 1032.8 hPa | 0 mm | - | 61 W/m² | - |
| 1778391552 | 15° C | 81% | 1032.7 hPa | 0 mm | - | 65 W/m² | - |
| 1778391262 | 15° C | 81% | 1032.5 hPa | 0 mm | - | 68 W/m² | - |
| 1778390972 | 15° C | 80% | 1032.4 hPa | 0 mm | - | 72 W/m² | - |
| 1778390682 | 15° C | 79% | 1032.6 hPa | 0 mm | - | 76 W/m² | - |
| 1778390392 | 15° C | 78% | 1032.4 hPa | 0 mm | - | 82 W/m² | - |
* Rain latest hour (hover to see other rain measurements)
** Current wind speed in m/s (hover to see current wind gust speed)